Location: Forst
(46.9333°N, 15.4333°E)
Time: 13:15:57
(UTC+00:00)

Cosmos 1602 - Pass Details

Date: 01 December 2020
Orbit: 512 x 534 km, 82.5° (Epoch: 27 January)

Event Time Altitude Azimuth Distance (km) Brightness Sun altitude
Rises 16:03:54 0° 358° (N) 2,690 7.1 -8.8°
Reaches altitude 10° 16:06:12 10° 7° (N) 1,791 6.2 -9.2°
Maximum altitude 16:09:51 36° 75° (ENE) 851 4.3 -9.7°
Drops below altitude 10° 16:13:27 10° 143° (SE) 1,766 6.2 -10.3°
Sets 16:15:42 0° 152° (SSE) 2,645 7.2 -10.7°
